[[{"header":{"parameterUnit":"m.s-1","parameterCategory":1,"la1":30.2991,"la2":30.254,"lo1":-89.0895,"lo2":-89.0444,"dy":0.0017,"dx":0.0017,"nx":28,"ny":28,"refTime":"2024-07-20T09:00:00:Z","depth":0,"parameterNumber":2,"parameterNumberName":"U-component_of_WINDS"},"data":[0,0,0,0,0,0,0,0,0,0,0,0,0,0,0,0,0,0,0,0,0,0,0,0,0,0,0,0,0,0,0,0,0,0,0,0,0,0,0,0,0,0,0,0,0,0,0,0,0,0,0,0,0,0,0,0,0,0,2.0884,2.0885,0,2.1023,2.1024,2.1026,2.1063,2.1062,2.1061,2.106,2.1205,2.121,2.1214,0,0,0,0,0,0,0,0,0,0,0,0,0,2.0651,2.0655,2.0884,2.0885,2.0887,2.1023,2.1024,2.1026,2.1063,2.1062,2.1061,2.106,2.1204,2.1209,2.1215,0,0,0,0,0,0,0,0,0,0,0,0,0,2.0767,2.0657,2.0883,2.0922,2.0926,2.1022,2.1025,2.1027,2.1063,2.1062,2.1061,2.1059,2.1202,2.1209,2.1216,2.1284,0,0,2.1237,2.124,0,0,0,0,0,0,0,0,2.0761,2.0776,2.0914,2.0919,2.0925,2.1024,2.0996,2.1113,2.1063,2.1011,2.106,2.1059,2.1146,2.1158,2.1187,2.1291,2.1297,2.1238,2.1242,2.1245,2.1247,0,0,0,0,0,0,0,2.0753,2.077,2.0939,2.0916,2.0923,2.0932,2.0947,2.1018,2.1084,2.1016,2.1019,2.1035,2.1149,2.118,2.119,2.1299,2.1237,2.1244,2.1248,2.1251,2.1466,2.1467,0,0,0,0,0,0,2.0738,2.0763,2.0934,2.0943,2.0838,2.0938,2.0954,2.0994,2.1084,2.1096,2.1036,2.1036,2.1169,2.1182,2.1196,2.1281,2.1245,2.1251,2.1255,2.1464,2.1466,2.1468,0,0,0,0,0,0,2.0733,2.0753,2.0929,2.0854,2.0877,2.0943,2.0986,2.0997,2.1028,2.1098,2.1111,2.1055,2.1168,2.1186,2.1261,2.1286,2.1254,2.1261,2.1462,2.1465,2.1467,2.1452,0,0,0,0,0,0,2.0726,2.0751,2.0777,2.0854,2.0881,2.0992,2.0988,2.1001,2.104,2.1041,2.112,2.1132,2.1168,2.1251,2.1268,2.1295,2.1266,2.146,2.1463,2.1466,2.1451,2.1454,2.1456,0,0,0,0,0,2.0717,2.0768,2.0778,2.0799,2.0915,2.0993,2.1008,2.1049,2.1041,2.1069,2.1114,2.1129,2.1281,2.1258,2.1278,2.1308,2.1459,2.1463,2.1466,2.145,2.1453,2.1456,0,0,0,0,0,0,2.0693,2.0779,2.0791,2.0868,2.0923,2.0999,2.1035,2.1052,2.111,2.1109,2.1158,2.1175,2.1248,2.1286,2.1259,2.1378,2.137,2.1378,2.1351,2.1355,2.1358,2.1347,2.1272,0,0,0,0,0,2.0696,2.0752,2.0824,2.0885,2.0912,2.0968,2.1004,2.103,2.1089,2.1113,2.1164,2.1221,2.1282,2.132,2.138,2.1457,2.1474,2.1487,2.149,2.1492,2.1497,2.154,2.1546,2.1479,2.1479,2.1479,0,0,2.0705,2.0758,2.0791,2.0882,2.0927,2.0984,2.0988,2.1048,2.109,2.1122,2.1196,2.1236,2.1303,2.1379,2.1415,2.1413,2.152,2.1496,2.1497,2.1502,2.1544,2.155,2.1556,2.1481,2.1481,2.1481,0,0,2.0748,2.0794,2.085,2.0895,2.0963,2.1,2.1013,2.1087,2.1114,2.1189,2.1214,2.1265,2.1369,2.1415,2.1453,2.1512,2.1529,2.1531,2.1545,2.1586,2.1591,2.1596,2.1617,2.1624,2.1536,2.1536,2.1536,0,2.0749,2.0835,2.0876,2.0935,2.0974,2.1004,2.1061,2.1103,2.1188,2.1214,2.1211,2.134,2.1388,2.1475,2.1489,2.1518,2.1535,2.1522,2.1587,2.1592,2.1598,2.1618,2.1626,2.1536,2.1536,2.1536,2.1536,0,2.0833,2.0892,2.0929,2.1008,2.1052,2.1109,2.1159,2.1199,2.1221,2.1258,2.1334,2.1392,2.1463,2.1486,2.1509,2.1576,2.1573,2.1577,2.157,2.1603,2.1623,2.1631,2.1536,2.1536,2.1536,2.1536,0,0,2.0866,2.0966,2.0979,2.1015,2.1093,2.1139,2.1198,2.1267,2.1299,2.1357,2.1407,2.1493,2.1497,2.154,2.1568,2.1604,2.1647,2.1605,2.1607,2.161,2.1724,2.1719,2.1727,2.1658,2.166,2.1661,2.1718,0,2.0918,2.1023,2.1061,2.1147,2.1202,2.1231,2.1282,2.1335,2.1372,2.1424,2.1465,2.1525,2.1527,2.1552,2.1589,2.1634,2.167,2.163,2.1705,2.1708,2.1687,2.1738,2.1734,2.1784,2.1726,2.1727,2.1728,0,2.0993,2.105,2.1141,2.1211,2.1235,2.128,2.1346,2.1396,2.1456,2.148,2.1527,2.1553,2.1615,2.1604,2.1691,2.1663,2.1696,2.1722,2.1725,2.1734,2.1719,2.1747,2.1802,2.1809,2.1741,2.174,2.1739,0,2.1007,2.1106,2.1173,2.1204,2.1287,2.1317,2.1354,2.1413,2.1452,2.151,2.1535,2.16,2.1635,2.1685,2.1727,2.1715,2.181,2.1803,2.1832,2.1831,2.185,2.1849,2.191,2.1872,2.1872,2.1872,2.1872,0,2.1061,2.1116,2.118,2.1222,2.1283,2.1327,2.1388,2.1426,2.1478,2.1528,2.1557,2.1603,2.1657,2.171,2.1744,2.181,2.1826,2.1848,2.1856,2.1845,2.1842,2.1867,2.1864,2.1874,2.1874,2.1873,2.1873,0,2.1087,2.1132,2.1207,2.1279,2.1299,2.1341,2.1403,2.1444,2.1481,2.1544,2.1561,2.162,2.1684,2.1731,2.1814,2.1837,2.1907,2.1916,2.1886,2.1891,2.1917,2.1913,2.1997,2.201,2.1963,2.1963,2.1964,0,2.1118,2.116,2.1236,2.1271,2.1307,2.1363,2.1402,2.1446,2.1486,2.1558,2.1591,2.1656,2.1711,2.1811,2.1862,2.1926,2.1936,2.1961,2.1946,2.1933,2.1936,2.1932,2.1936,2.1963,2.1963,2.1963,2.1963,0,2.1169,2.1189,2.1244,2.1306,2.1352,2.1403,2.1456,2.1483,2.1537,2.158,2.1645,2.1687,2.1771,2.1836,2.1904,2.1942,2.1962,2.1967,2.1978,2.1966,2.1947,2.1957,2.1891,2.1965,2.1965,2.1965,2.1965,2.1965,2.1198,2.1236,2.1296,2.1356,2.1399,2.1447,2.1489,2.1531,2.1586,2.1657,2.168,2.1747,2.1806,2.19,2.1938,2.1992,2.1992,2.2006,2.201,2.2013,2.2012,2.1938,2.2005,2.2005,2.2005,2.2005,2.2005,0,2.1249,2.1289,2.1343,2.1415,2.1462,2.1475,2.1533,2.1572,2.163,2.1683,2.1736,2.1811,2.1873,2.1928,2.1993,2.2025,2.2036,2.2041,2.2039,2.2047,2.2008,2.1993,2.2031,2.2031,2.2031,2.2031,2.2031,2.2031,2.1282,2.1347,2.1374,2.1462,2.1501,2.1566,2.1598,2.1643,2.1685,2.1766,2.1818,2.1853,2.1907,2.1976,2.2034,2.2049,2.2072,2.2074,2.2091,2.2053,2.205,2.2047,2.2033,2.2079,2.2079,2.2125,2.2126,2.2126]},{"header":{"parameterUnit":"m.s-1","parameterCategory":1,"la1":30.2991,"la2":30.254,"lo1":-89.0895,"lo2":-89.0444,"dy":0.0017,"dx":0.0017,"nx":28,"ny":28,"refTime":"2024-07-20T09:00:00:Z","depth":0,"parameterNumber":3,"parameterNumberName":"V-component_of_WINDS"},"data":[0,0,0,0,0,0,0,0,0,0,0,0,0,0,0,0,0,0,0,0,0,0,0,0,0,0,0,0,0,0,0,0,0,0,0,0,0,0,0,0,0,0,0,0,0,0,0,0,0,0,0,0,0,0,0,0,0,0,2.587,2.587,0,2.5816,2.5815,2.5814,2.5797,2.5797,2.5798,2.5798,2.5736,2.5734,2.5732,0,0,0,0,0,0,0,0,0,0,0,0,0,2.5953,2.5952,2.587,2.587,2.5869,2.5816,2.5815,2.5814,2.5797,2.5797,2.5798,2.5798,2.5737,2.5734,2.5732,0,0,0,0,0,0,0,0,0,0,0,0,0,2.591,2.5952,2.587,2.5854,2.5852,2.5816,2.5815,2.5814,2.5797,2.5797,2.5798,2.5798,2.5737,2.5735,2.5732,2.5706,0,0,2.5723,2.5722,0,0,0,0,0,0,0,0,2.5912,2.5907,2.5857,2.5855,2.5853,2.5814,2.5822,2.5778,2.5797,2.5818,2.5798,2.5798,2.5761,2.5756,2.5745,2.5703,2.5701,2.5723,2.5721,2.572,2.5719,0,0,0,0,0,0,0,2.5915,2.5909,2.5848,2.5856,2.5854,2.5847,2.5842,2.5813,2.5787,2.5816,2.5814,2.5809,2.576,2.5748,2.5743,2.57,2.5723,2.572,2.5719,2.5717,2.5633,2.5633,0,0,0,0,0,0,2.5922,2.5912,2.585,2.5847,2.5884,2.5846,2.5839,2.5826,2.5788,2.5783,2.5808,2.5808,2.5752,2.5747,2.5741,2.5708,2.572,2.5717,2.5716,2.5634,2.5633,2.5632,0,0,0,0,0,0,2.5924,2.5917,2.5852,2.5879,2.587,2.5844,2.5829,2.5824,2.5812,2.5782,2.5777,2.5801,2.5753,2.5745,2.5715,2.5706,2.5716,2.5713,2.5634,2.5633,2.5633,2.5642,0,0,0,0,0,0,2.5926,2.5917,2.5909,2.5879,2.5869,2.5829,2.5828,2.5823,2.5808,2.5807,2.5774,2.5769,2.5752,2.572,2.5712,2.5702,2.5711,2.5635,2.5634,2.5633,2.5643,2.5642,2.5641,0,0,0,0,0,2.5929,2.5913,2.5909,2.5901,2.5858,2.5829,2.5823,2.5806,2.5808,2.5798,2.5778,2.577,2.5708,2.5717,2.5708,2.5697,2.5635,2.5634,2.5633,2.5643,2.5642,2.5641,0,0,0,0,0,0,2.594,2.5908,2.5904,2.5877,2.5856,2.5826,2.5813,2.5806,2.5782,2.5782,2.576,2.5752,2.5724,2.5707,2.5717,2.567,2.5671,2.5668,2.5682,2.5681,2.568,2.5684,2.5709,0,0,0,0,0,2.594,2.5921,2.5893,2.5872,2.5862,2.584,2.5826,2.5815,2.5792,2.5782,2.576,2.5736,2.5711,2.5695,2.567,2.5641,2.5632,2.5628,2.5628,2.5627,2.5625,2.5606,2.5604,2.5628,2.5628,2.5628,0,0,2.5938,2.5919,2.5907,2.5874,2.5857,2.5835,2.5832,2.581,2.5793,2.5778,2.5749,2.5732,2.5703,2.5673,2.5659,2.5658,2.5616,2.5626,2.5626,2.5623,2.5605,2.5603,2.5601,2.5628,2.5628,2.5628,0,0,2.5924,2.5908,2.5889,2.5872,2.5846,2.5831,2.5826,2.5797,2.5786,2.5757,2.5745,2.5724,2.5682,2.5662,2.5646,2.5625,2.5615,2.5617,2.5613,2.5595,2.5593,2.5592,2.5583,2.558,2.5615,2.5615,2.5615,0,2.5925,2.5895,2.5879,2.5858,2.5843,2.583,2.5809,2.5793,2.5759,2.5748,2.5749,2.5696,2.5675,2.564,2.5635,2.5623,2.5615,2.562,2.5595,2.5593,2.5591,2.5583,2.558,2.5615,2.5615,2.5615,2.5615,0,2.5896,2.5875,2.5862,2.5833,2.5816,2.5795,2.5775,2.576,2.575,2.5734,2.5704,2.5679,2.5649,2.564,2.563,2.5603,2.5603,2.56,2.5601,2.559,2.5581,2.5578,2.5615,2.5615,2.5615,2.5615,0,0,2.5887,2.585,2.5845,2.5831,2.5802,2.5784,2.5762,2.5735,2.5721,2.5698,2.5678,2.5643,2.564,2.5622,2.5609,2.5594,2.5577,2.5592,2.5591,2.5589,2.5544,2.5546,2.5543,2.5571,2.557,2.557,2.5546,0,2.5869,2.5831,2.5816,2.5784,2.5764,2.5751,2.5731,2.571,2.5695,2.5673,2.5656,2.5631,2.5629,2.5618,2.5603,2.5582,2.5567,2.5584,2.555,2.5549,2.5557,2.5539,2.5541,2.552,2.5543,2.5542,2.5542,0,2.5842,2.5822,2.5788,2.5761,2.5752,2.5734,2.5708,2.5688,2.5663,2.5653,2.5633,2.5621,2.5595,2.5599,2.5561,2.5573,2.5558,2.5546,2.5545,2.554,2.5544,2.5532,2.5513,2.5509,2.5537,2.5537,2.5537,0,2.5838,2.5801,2.5776,2.5765,2.5733,2.5721,2.5706,2.5682,2.5666,2.5642,2.5631,2.5604,2.5589,2.5567,2.5547,2.5552,2.5511,2.5513,2.55,2.5501,2.5491,2.5492,2.5468,2.5483,2.5484,2.5484,2.5484,0,2.5819,2.5798,2.5774,2.5759,2.5735,2.5718,2.5694,2.5678,2.5657,2.5636,2.5623,2.5604,2.558,2.5557,2.5541,2.5512,2.5505,2.5494,2.549,2.5495,2.5496,2.5484,2.5485,2.5483,2.5483,2.5483,2.5483,0,2.5809,2.5793,2.5764,2.5737,2.5729,2.5713,2.5688,2.5672,2.5656,2.5631,2.5623,2.5598,2.557,2.5549,2.5512,2.5502,2.547,2.5466,2.5479,2.5477,2.5465,2.5466,2.5432,2.5426,2.5446,2.5446,2.5446,0,2.5798,2.5782,2.5753,2.574,2.5726,2.5705,2.5689,2.5671,2.5655,2.5625,2.5611,2.5583,2.556,2.5516,2.5493,2.5464,2.5459,2.5449,2.5454,2.5459,2.5457,2.5458,2.5456,2.5447,2.5447,2.5447,2.5447,0,2.5778,2.5771,2.575,2.5726,2.5709,2.5688,2.5668,2.5657,2.5634,2.5617,2.5589,2.5571,2.5535,2.5506,2.5476,2.5458,2.5448,2.5446,2.5441,2.5445,2.5453,2.5448,2.5476,2.5446,2.5446,2.5447,2.5447,2.5447,2.5767,2.5752,2.573,2.5707,2.569,2.5671,2.5654,2.5637,2.5614,2.5585,2.5575,2.5546,2.552,2.5478,2.5461,2.5437,2.5436,2.5429,2.5428,2.5426,2.5426,2.5458,2.5431,2.5431,2.5431,2.5431,2.5431,0,2.5746,2.5731,2.571,2.5683,2.5664,2.5659,2.5636,2.562,2.5595,2.5573,2.5551,2.5519,2.5491,2.5466,2.5437,2.5422,2.5417,2.5415,2.5415,2.5411,2.5429,2.5435,2.542,2.542,2.542,2.542,2.542,2.542,2.5733,2.5708,2.5698,2.5663,2.5647,2.5621,2.5608,2.559,2.5572,2.5537,2.5515,2.55,2.5476,2.5445,2.5418,2.5412,2.5401,2.54,2.5392,2.5408,2.541,2.5411,2.5417,2.5398,2.5398,2.5376,2.5375,2.5375]}]]